Regional Weather Roundup
Issued by NWS Northern Indiana

Home | Current Version | Previous Version | Text Only | Print | Product List | Glossary Off
Versions: 1 2 3 4 5 6 7 8 9 10 11 12 13 14 15 16 17 18 19 20 21 22 23 24 25 26 27 28 29 30 31 32 33 34 35 36 37 38 39 40 41 42 43 44 45 46 47 48 49 50

000
ASUS43 KIWX 030310
RWRIWX

KIWX WEATHER ROUNDUP
NATIONAL WEATHER SERVICE NORTHERN INDIANA
1100 PM EDT TUE JUN 02 2015

NOTE: "FAIR" INDICATES FEW OR NO CLOUDS BELOW 12,000 FEET WITH NO
SIGNIFICANT WEATHER AND/OR OBSTRUCTIONS TO VISIBILITY.

* THESE STATIONS ARE NOT UNDER NWS QUALITY CONTROL. THEY ALSO MAY NOT
  REPORT WEATHER SUCH AS PRECIPITATION OR FOG.

INZ001>027-030400-
NORTHERN INDIANA

CITY           SKY/WX    TMP DP  RH WIND       PRES   REMARKS
GARY*          PTCLDY    55  48  76 NE5       30.11S
VALPARAISO     CLEAR     56  48  74 N3        30.12R
MICHIGAN CITY* CLEAR     50  46  87 CALM      30.12R
LAPORTE*       CLEAR     57  50  79 CALM      30.12R
KNOX*          CLEAR     57  54  88 SE3       30.10S
SOUTH BEND     CLEAR     63  50  62 E6        30.13R
GOSHEN         CLEAR     59  50  72 E8        30.13R
MONTICELLO*    CLEAR     56  56  97 CALM      30.10S
LOGANSPORT*    CLEAR     55  52  88 E5        30.11S
ROCHESTER*     CLEAR     59  54  82 E5        30.12R
WARSAW*        CLEAR     59  50  72 E8        30.12S
ANGOLA*        CLEAR     55  45  67 CALM      30.15R
FORT WAYNE     PTCLDY    56  47  71 E7        30.15R
HUNTINGTON*    CLEAR     57  49  75 E5        30.13R
PERU/GRISSOM   PTCLDY    59  54  83 E6        30.10R
MARION*        CLOUDY    58  53  84 E5        30.13R

$$
INZ028>050-030400-
CENTRAL INDIANA

CITY           SKY/WX    TMP DP  RH WIND       PRES   REMARKS
LAFAYETTE      CLEAR     55  52  89 CALM      30.10R
KOKOMO*        PTCLDY    57  36  44 E3        30.11R
MUNCIE*        CLEAR     57  53  86 CALM      30.11S
INDIANAPOLIS   PTCLDY    58  50  75 SE7       30.09S

$$
MIZ043>046-050>051-056>058-064>065-071>073-077>080-030400-
SOUTHWEST LOWER MICHIGAN

CITY           SKY/WX    TMP DP  RH WIND       PRES   REMARKS
BATTLE CREEK   CLEAR     61  47  59 SE7       30.14R
BENTON HARBOR  CLEAR     49  45  86 CALM      30.12R
COLDWATER*     CLEAR     54  44  67 SE5       30.14F
HILLSDALE*     CLEAR     53  46  77 CALM      30.16R
HOLLAND        CLEAR     55  46  71 CALM      30.13R
GRAND RAPIDS   PTCLDY    59  51  75 CALM      30.12R
KALAMAZOO      CLEAR     62  48  60 SE6       30.14R
STURGIS*       CLEAR     57  45  62 E9        30.14R
THREE RIVERS*  FAIR      61  45  56 SE9       30.14R

$$
OHZ001>008-015>018-024>025-030400-
NORTHWEST OHIO

CITY           SKY/WX    TMP DP  RH WIND       PRES   REMARKS
DEFIANCE       CLEAR     55  45  68 CALM      30.14S
FINDLAY        PTCLDY    57  47  69 NE7       30.13R
TOLEDO EXPRESS CLEAR     51  45  79 NE5       30.14S
TOLEDO METCALF CLEAR     56  47  71 NE5       30.16R
LIMA           CLEAR     56  48  74 NE5       30.13R

$$
AND FOR LAKE MICHIGAN COASTAL AND OPEN LAKE BUOY OBSERVATIONS

STATION/POSITION TEMP    WIND        PRES    VSBY  WAVE
                 AIR SEA DIR/SP/G                  HT/PER
                 (F)     (DEG/KT/KT) (MB)    (MI)  (FT/S)
CALUMET HARBOR    55      70/  6/  9   N/A
MICHIGAN CITY     56      40/ 10/ 12   N/A
BURNS HARBOR              70/  6/  8 1020.0S
SAINT JOSEPH      54      CALM  /  2 1020.0F
SOUTH LAKE BUOY   42 38   80/  6/  8 1020.1R         0
4 MI NW BRIDGMAN  55 55   80/  6/  6   N/A           1/ 2
MICHIGAN CITY     57 57  100/  8/ 10   N/A           1/ 2

$$
&&



USA.gov is the U.S. government's official web portal to all federal, state and local government web resources and services.